Other Public Products
Issued by NWS Grand Forks, ND

Home | Current Version | Previous Version | Graphics & Text | Print | Product List | Glossary Off
Versions: 1 2 3 4 5 6 7 8 9 10 11 12 13 14 15 16 17 18 19 20 21 22 23 24 25 26 27 28 29 30 31 32 33 34 35 36 37 38 39 40 41 42 43 44 45 46 47 48 49 50

000
FPUS83 KFGF 230631
OPUFGF
PRAIRIE TO PINES WEATHER ROUNDUP
NATIONAL WEATHER SERVICE EASTERN NORTH DAKOTA/GRAND FORKS ND
100 AM CDT SAT AUG 23 2014

 **SATELLITE DATA USED TO AUGMENT SKY COVER AT AUTOMATED STATIONS**
 *****  WEATHER ACROSS EASTERN NORTH DAKOTA  *****

CITY           SKY/WX    TMP DP  RH WIND       PRES   REMARKS
GRAND FORKS    CLOUDY    63  61  94 N13       30.09S
6HR MIN TEMP:  63; 6HR MAX TEMP:  71; 6HR PCP: TRACE;

GRAND FORKS AF CLOUDY    63  63 100 N8        30.11S
GRAND CITY NWS   N/A     54 N/A N/A MISG        N/A
BUXTON           N/A     65  64  98 N6          N/A
DEVILS LAKE    CLOUDY    61  54  77 NE13      30.12F
6HR MIN TEMP:  61; 6HR MAX TEMP:  68;

FARGO          CLOUDY    67  63  87 N14       30.05F
6HR MIN TEMP:  67; 6HR MAX TEMP:  71;

WAHPETON ARPT  CLOUDY    66  63  88 N6        30.04S
$$

 *****  WEATHER ACROSS CENTRAL AND WESTERN NORTH DAKOTA  *****

CITY           SKY/WX    TMP DP  RH WIND       PRES   REMARKS
JAMESTOWN      CLOUDY    64  61  90 NE6       30.09F
6HR MIN TEMP:  62; 6HR MAX TEMP:  71;

BISMARCK       CLOUDY    65  63  93 NE14      30.08F
6HR MIN TEMP:  65; 6HR MAX TEMP:  68; 6HR PCP: TRACE;

MINOT          CLOUDY    61  56  83 NE12      30.14S
6HR MIN TEMP:  61; 6HR MAX TEMP:  65;

MINOT AFB      CLOUDY    61  60  94 NE10      30.14F
6HR MIN TEMP:  61; 6HR MAX TEMP:  65; 6HR PCP: TRACE;

GARRISON         N/A     63  59  87 E10       30.11F
6HR MIN TEMP:  62; 6HR MAX TEMP:  65;

WILLISTON      CLOUDY    63  55  75 NE13      30.14S
6HR MIN TEMP:  63; 6HR MAX TEMP:  66;

DICKINSON      CLOUDY    62  61  96 NE13      30.06F
6HR MIN TEMP:  62; 6HR MAX TEMP:  68; 6HR PCP:  0.09;

HETTINGER      CLOUDY    65  62  90 E16       30.05F
6HR MIN TEMP:  65; 6HR MAX TEMP:  71;

$$

 *****  OTHER OBSERVATIONS NORTHEAST NORTH DAKOTA  *****

CITY           SKY/WX    TMP DP  RH WIND       PRES   REMARKS
WALHALLA         N/A     59  59 100 N12       30.15S FOG
LANGDON        CLOUDY    57  57 100 N12       30.15F
CAVALIER       CLOUDY    59  59 100 N7        30.13S
GRAFTON        CLOUDY    63  63 100 N13       30.11F
CANDO          CLOUDY    59  55  88 NE12      30.16S
FORT TOTTEN    NOT AVBL
ROLLA          MOCLDY    55  55 100 NE9       30.19S FOG
RUGBY          CLOUDY    57  57 100 NE15      30.15S
 ***** THE ABOVE OBSERVATIONS ARE NON NWS ARE NOT QUALITY
        CONTROLLED AND MAY MIS-REPORT RAIN FOR SNOW...
$$

 *****  OTHER OBSERVATIONS SOUTHEAST NORTH DAKOTA *****

CITY           SKY/WX    TMP DP  RH WIND       PRES   REMARKS
COOPERSTOWN    NOT AVBL
VALLEY CITY    CLOUDY    64  64 100 N13G20    30.08F
OAKES            N/A     64  64 100 NE9       30.05F
GWINNER        CLOUDY    66  66 100 N8        30.06F
SHEYENNE NWR     N/A     67  64  90 N7        29.95S
BUFFALO          N/A     65  60  83 N13         N/A
WYNDMERE       NOT AVBL
 ***** THE ABOVE OBSERVATIONS ARE NON NWS ARE NOT QUALITY
       CONTROLLED AND MAY MIS-REPORT RAIN FOR SNOW...
$$

  *****  WEATHER ACROSS NORTHERN MINNESOTA  *****

CITY           SKY/WX    TMP DP  RH WIND       PRES   REMARKS
FLAG ISLAND    CLOUDY    66  64  94 NW9       30.08S
WARROAD        CLOUDY    64  61  88 N6        30.10R
ROSEAU         CLOUDY    64  59  82 N6        30.11R
HALLOCK        CLOUDY    63  61  94 N6        30.12R
THF RVR FALLS  CLOUDY    64  63  94 N10       30.08S
6HR MIN TEMP:  64; 6HR MAX TEMP:  72;

HALSTAD          N/A     65  63  91 N10         N/A
FOSSTON        CLOUDY    66  64  94 CALM      30.07S FOG
BAUDETTE       FAIR      63  62  97 CALM      30.08S FOG
6HR MIN TEMP:  62; 6HR MAX TEMP:  70;

WASKISH        CLOUDY    68  66  94 CALM      30.07S
CROOKSTON      HVY RAIN  63  63 100 N8        30.08F
$$
  *****  WEATHER ACROSS CENTRAL AND WEST MINNESOTA  *****

CITY           SKY/WX    TMP DP  RH WIND       PRES   REMARKS
BEMIDJI        FOG       63  63  99 CALM      30.06S VSB 1/2
PARK RAPIDS    CLOUDY    66  66 100 CALM      30.04F FOG
6HR MIN TEMP:  63; 6HR MAX TEMP:  75;

WADENA         CLOUDY    64  64 100 CALM      30.03F
DETROIT LAKES  CLOUDY    68  64  88 N3        30.05F FOG
MOORHEAD       CLOUDY    66  66 100 N13       30.04F
FERGUS FALLS   FAIR      64  64 100 CALM      30.02F
ELBOW LAKE     FAIR      65  65  97 N3        30.02F
6HR MIN TEMP:  66; 6HR MAX TEMP:  75;

MORRIS MN      FAIR      70  68  94 NE3       30.01S
STAPLES        MOCLDY    66  66 100 CALM      30.03F
WHEATON        CLOUDY    64  63  94 NW7       30.04F
$$
  *****  WEATHER ELSEWHERE ACROSS MINNESOTA  *****

CITY           SKY/WX    TMP DP  RH WIND       PRES   REMARKS
DULUTH         FAIR      62  59  90 CALM      30.08R
6HR MIN TEMP:  62; 6HR MAX TEMP:  64;

INTRNTL FALLS  FAIR      59  58  96 CALM      30.07S FOG
6HR MIN TEMP:  60; 6HR MAX TEMP:  73;

ELY            CLOUDY    64  63  94 CALM      30.08S
CLOQUET        CLOUDY    63  61  94 E5        30.07F FOG
BRAINERD       CLOUDY    66  65  96 CALM      30.05S
6HR MIN TEMP:  65; 6HR MAX TEMP:  74;

HIBBING        CLOUDY    67  63  87 CALM      30.08S
6HR MIN TEMP:  66; 6HR MAX TEMP:  73; 6HR PCP: TRACE;

ALEXANDRIA     FAIR      70  68  93 E5        30.05F
6HR MIN TEMP:  70; 6HR MAX TEMP:  77;

SAINT CLOUD    FAIR      69  66  90 NE7       30.02F
6HR MIN TEMP:  69; 6HR MAX TEMP:  79;

MINNEAPOLIS    FAIR      70  68  93 NE5       30.00F
6HR MIN TEMP:  70; 6HR MAX TEMP:  76;

$$

  *****  WEATHER ACROSS SOUTH DAKOTA  *****

CITY           SKY/WX    TMP DP  RH WIND       PRES   REMARKS
SIOUX FALLS    FAIR      73  68  84 E8        29.97S
6HR MIN TEMP:  73; 6HR MAX TEMP:  82;

BROOKINGS      NOT AVBL
WATERTOWN      MOCLDY    68  66  93 NE9       30.02F
6HR MIN TEMP:  68; 6HR MAX TEMP:  72; 6HR PCP:  0.06;

HURON          CLOUDY    73  68  84 E13       29.97F
6HR MIN TEMP:  72; 6HR MAX TEMP:  77;

SISSETON         N/A     67  67 100 N6        30.04F
ABERDEEN       MOCLDY    65  65 100 NE12      30.02F
6HR MIN TEMP:  65; 6HR MAX TEMP:  77;

MITCHELL       CLOUDY    73  70  90 E6        29.96S
PIERRE         CLOUDY    69  68  96 NE14      29.94F
6HR MIN TEMP:  67; 6HR MAX TEMP:  77; 6HR PCP:  0.11;

MOBRIDGE       CLOUDY    68  66  93 E21G26    29.99F
RAPID CITY     CLOUDY    67  63  87 E10       29.97F
6HR MIN TEMP:  66; 6HR MAX TEMP:  73;

$$

  *****  SOME WEATHER IN NEARBY STATES *****

CITY           SKY/WX    TMP DP  RH WIND       PRES   REMARKS
GLASGOW MT     CLOUDY    62  53  72 NE18      30.10F
6HR MIN TEMP:  61; 6HR MAX TEMP:  65; 6HR PCP: TRACE;

GREAT FALLS MT CLOUDY    49  48  97 NW10      30.14S
6HR MIN TEMP:  49; 6HR MAX TEMP:  58; 6HR PCP: TRACE;

CHEYENNE WY    LGT RAIN  57  55  93 S12       30.06F
6HR MIN TEMP:  57; 6HR MAX TEMP:  61; 6HR PCP:  0.16;

SCOTTSBLUFF NE CLOUDY    64  61  90 E6        29.98F
6HR MIN TEMP:  63; 6HR MAX TEMP:  69; 6HR PCP:  0.03;

OMAHA NE       CLOUDY    77  73  87 S5        29.93R THUNDER
6HR MIN TEMP:  75; 6HR MAX TEMP:  79;

DES MOINES IA  FAIR      78  75  90 NE3       29.93S
6HR MIN TEMP:  77; 6HR MAX TEMP:  83;

DAVENPORT IA   FAIR      73  71  93 E5        29.95F
6HR MIN TEMP:  73; 6HR MAX TEMP:  83;

CHICAGO IL     MOCLDY    77  70  79 CALM      29.96F
6HR MIN TEMP:  75; 6HR MAX TEMP:  82;

EAU CLAIRE WI  MOCLDY    69  69 100 N3        29.99F
6HR MIN TEMP:  69; 6HR MAX TEMP:  80;

LA CROSSE WI   FAIR      74  71  91 NW6       29.97S
6HR MIN TEMP:  74; 6HR MAX TEMP:  85;

$$

  *****  SOME NATIONAL WEATHER *****

CITY           SKY/WX    TMP DP  RH WIND       PRES   REMARKS


USA.gov is the U.S. government's official web portal to all federal, state and local government web resources and services.